Regional Weather Roundup
Issued by NWS Jackson, KY

Home | Current Version | Previous Version | Text Only | Print | Product List | Glossary Off
Versions: 1 2 3 4 5 6 7 8 9 10 11 12 13 14 15 16 17 18 19 20 21 22 23 24 25 26 27 28 29 30 31 32 33 34 35 36 37 38 39 40 41 42 43 44 45 46 47 48 49 50

000
ASUS43 KJKL 011510
RWRJKL

EAST KENTUCKY HOURLY WEATHER ROUNDUP
NATIONAL WEATHER SERVICE JACKSON KY
1100 AM EDT MON JUN 01 2015

NOTE: "FAIR" INDICATES FEW OR NO CLOUDS BELOW 12,000 FEET WITH
NO SIGNIFICANT WEATHER AND/OR OBSTRUCTIONS TO VISIBILITY.

* THESE REPORTS ARE NOT UNDER NWS QUALITY CONTROL AND MAY NOT
  REPORT WEATHER SUCH AS PRECIPITATION AND FOG.

KYZ079-080-083-085-087-088-110-112-115-119-120-011600
...EASTERN KENTUCKY...

CITY           SKY/WX    TMP DP  RH WIND       PRES   REMARKS
JACKSON        CLOUDY    65  61  87 CALM      30.09R
LONDON         CLOUDY    71  62  73 VRB3      30.06S
SOMERSET*      CLOUDY    64  64 100 CALM      30.07S
MONTICELLO*    FOG       70  70 100 W7        30.08S VSB 1/2
MIDDLESBORO*   CLOUDY    70  66  88 E3        30.09R
HARLAN APT*    CLOUDY    70  64  83 CALM      30.08F
HAZARD APT*    LGT RAIN  70  68  94 CALM      30.08R
BLACK MTN*       N/A     63  59  88 S1          N/A
PIKEVILLE APT* CLOUDY    66  64  94 NE3       30.08F
BIG SANDY*     CLOUDY    64  61  90 N6        30.08F
MOREHEAD APT*  CLOUDY    55  54  94 VRB5      30.12F
$$

KYZ035-036-041-042-044-050-067-078-099-011600
...CENTRAL KENTUCKY...

CITY           SKY/WX    TMP DP  RH WIND       PRES   REMARKS
MT STERLING*   CLOUDY    54  54 100 NE6       30.12S
FLEMING/MASON* CLOUDY    54  48  82 NE9       30.14S
DANVILLE*      DRIZZLE   54  54 100 NE8       30.10F
RICHMOND*      CLOUDY    55  54  94 CALM      30.09R
LEXINGTON      HVY RAIN  53  51  93 N9        30.11S FOG
FRANKFORT      RAIN      54  51  90 NE5       30.11S FOG
$$

KYZ091>093-OHZ055-061-077-WVZ005-015-034-035-042-011600
...SOUTHERN OHIO/WEST VIRGINIA...

CITY           SKY/WX    TMP DP  RH WIND       PRES   REMARKS
COVINGTON      LGT RAIN  53  50  89 N9        30.14F
COLUMBUS       CLOUDY    52  47  83 NE7       30.16S
DAYTON         CLOUDY    54  48  80 NE14      30.17F
WILMINGTON     LGT RAIN  51  46  83 NE12      30.15S
HUNTINGTON     CLOUDY    58  53  84 N5        30.10F
CHARLESTON     CLOUDY    62  56  80 NE3       30.10F
PINEVILLE*     PTSUNNY   75  66  73 MISG      30.14S
BECKLEY        MOSUNNY   73  61  65 S5        30.12F
BLUEFIELD      CLOUDY    76  59  55 W5        30.14F
$$

VAZ002-007-008-TNZ017-027-036-066-071-011600
...SOUTHWEST VIRGINIA/EAST TENNESSEE...

CITY           SKY/WX    TMP DP  RH WIND       PRES   REMARKS
WISE*          CLOUDY    72  59  64 E3        30.14S
JONESVILLE*    PTSUNNY   72  66  83 CALM      30.11S
ABINGDON*      CLOUDY    76  61  58 S3        30.11S
BRISTOL        PTSUNNY   74  63  68 SE5       30.08F
KNOXVILLE      PTSUNNY   73  65  75 SW7       30.07S
OAK RIDGE      CLOUDY    74  66  76 VRB3      30.08S
CROSSVILLE     PTSUNNY   70  62  76 VRB6      30.10S
NASHVILLE      CLOUDY    65  63  93 VRB6      30.07S FOG
$$

...KEY TO REMARKS...
VSB - VISIBILITY IN MILES
WCI - WIND CHILL INDEX
HX  - HEAT INDEX

$$


USA.gov is the U.S. government's official web portal to all federal, state and local government web resources and services.